Regional Weather Roundup
Issued by NWS

Home | Current Version | Previous Version | Graphics & Text | Print | Product List | Glossary On
Versions: 1 2 3 4 5 6 7 8 9 10 11 12 13 14 15 16 17 18 19 20 21 22 23 24 25 26 27 28 29 30 31 32 33 34 35 36 37 38 39 40 41 42 43 44 45 46 47 48 49 50
532
ASUS43 KDMX 230001
RWRIA

WEATHER ROUNDUP FOR IOWA
NATIONAL WEATHER SERVICE DES MOINES IA
600 PM CST WED NOV 22 2017

NOTE: "FAIR" INDICATES FEW OR NO CLOUDS BELOW 12,000 FEET WITH NO
SIGNIFICANT WEATHER AND/OR OBSTRUCTIONS TO VISIBILITY.

* - THESE STATIONS ARE NOT NWS STATIONS...THUS NOT UNDER NWS
QUALITY CONTROL.  THEY ALSO DO NOT REPORT WEATHER SUCH
AS PRECIPITATION OR FOG.

IAZ001>003-012>014-020>022-031>034-043>046-230100-
   NORTHWEST IOWA

CITY           SKY/WX    TMP DP  RH WIND       PRES   REMARKS
CARROLL *      PTCLDY   N/A N/A N/A SW14      30.09F
CHEROKEE *     CLOUDY    33  17  50 S12       30.04F WCI  24
DENISON *      PTCLDY    34  16  47 S13       30.11S WCI  25
LE MARS *      CLOUDY    36  18  48 S14       30.02F WCI  27
ORANGE CITY *  CLEAR     36  19  51 S14G20    30.01F WCI  27
SHELDON *      PTCLDY    34  16  47 S13       29.99F WCI  25
SIOUX CITY     PTCLDY    37  19  48 S8        30.06F WCI  31
6HR MIN TEMP:  32; 6HR MAX TEMP:  39;

SPENCER        CLOUDY    33  15  47 S12       30.02F WCI  24
6HR MIN TEMP:  29; 6HR MAX TEMP:  36;

STORM LAKE *   MIX PCPN  32  16  51 SW16      30.04F WCI  21
$$

IAZ055>058-069>071-079>083-090>094-230100-
   SOUTHWEST IOWA

CITY           SKY/WX    TMP DP  RH WIND       PRES   REMARKS
ATLANTIC *     CLOUDY    34  18  51 S9        30.13S WCI  26
AUDUBON *      CLOUDY    34  16  47 S9        30.12S WCI  26
CLARINDA *       N/A     32  18  55 S8        30.17F WCI  25
COUNCIL BLFS * CLOUDY    36  18  48 S9        30.11F WCI  29
CRESTON *      PTCLDY    32  16  51 S9        30.15F WCI  24
HARLAN  *      PTCLDY    34  18  51 SW9       30.15F WCI  26
LAMONI         CLOUDY    33  16  49 S8        30.17F WCI  26
6HR MIN TEMP:  32; 6HR MAX TEMP:  38;

RED OAK *      CLEAR     34  18  51 S8        30.15F WCI  27
SHENANDOAH *   CLOUDY    32  18  55 S7        30.17S WCI  26
$$

IAZ047>049-059>061-072>074-084-230100-
   CENTRAL IOWA

CITY           SKY/WX    TMP DP  RH WIND       PRES   REMARKS
AMES           CLOUDY    34  19  54 S10       30.12F WCI  26
6HR MIN TEMP:  31; 6HR MAX TEMP:  37;

ANKENY *       CLOUDY    36  14  41 S8G14     30.15F WCI  29
BOONE *        CLOUDY    36  16  44 S13       30.09F WCI  27
CHARITON *     CLOUDY    36  14  41 S7        30.17F WCI  30
DES MOINES     PTCLDY    35  14  42 S9        30.15F WCI  28
6HR MIN TEMP:  32; 6HR MAX TEMP:  39;

GRINNELL*      PTCLDY    34  15  44 S8        30.17F WCI  27
KNOXVILLE *    CLOUDY    36  12  38 S10       30.16F WCI  28
MARSHALLTOWN   CLOUDY    32  16  51 S7        30.13F WCI  26
6HR MIN TEMP:  30; 6HR MAX TEMP:  35;

NEWTON *       CLOUDY    34  12  40 S9        30.16F WCI  26
PELLA *        CLOUDY    36  12  37 S10       30.18F WCI  29
PERRY *        MOCLDY    33  15  47 S10       30.11F WCI  25
$$

IAZ004>006-015-016-023>025-035-036-230100-
   NORTH CENTRAL IOWA

CITY           SKY/WX    TMP DP  RH WIND       PRES   REMARKS
ALGONA *       CLOUDY    34  18  51 S16G22    30.04F WCI  23
CLARION *      CLOUDY    34  16  47 S15       30.07F WCI  24
ESTHERVILLE    MOCLDY    32  16  51 S14       30.00F WCI  22
6HR MIN TEMP:  27; 6HR MAX TEMP:  34;

FORT DODGE *   CLOUDY    34  16  47 S15       30.08F WCI  24
MASON CITY     CLOUDY    32  16  51 S13       30.08F WCI  22
6HR MIN TEMP:  29; 6HR MAX TEMP:  34;

FOREST CITY *  CLOUDY    34  19  55 S10       30.06F WCI  26
WEBSTER CITY * MOCLDY    34  16  47 S15       30.06F WCI  24
IOWA FALLS *   MOCLDY    33  18  53 S9        30.12F WCI  25
$$

IAZ007>011-017>019-026>030-037>042-050>054-066-230100-
   NORTHEAST IOWA

CITY           SKY/WX    TMP DP  RH WIND       PRES   REMARKS
CEDAR RAPIDS   CLOUDY    32  15  49 S9        30.17F WCI  24
6HR MIN TEMP:  30; 6HR MAX TEMP:  34;

CHARLES CITY * CLOUDY    32  14  47 S10       30.11F WCI  24
CLINTON *      PTCLDY    31  21  66 S5        30.22F WCI  26
DECORAH *      CLOUDY    30  16  55 S7        30.11F WCI  23
DUBUQUE        CLOUDY    30  16  56 S6        30.18F WCI  24
6HR MIN TEMP:  29; 6HR MAX TEMP:  32;

MONTICELLO *   CLOUDY    32  16  51 S9        30.17F WCI  24
OELWEIN *      CLOUDY    32  19  59 S8        30.15S WCI  25
WATERLOO       CLOUDY    33  13  43 S8        30.15F WCI  26
6HR MIN TEMP:  29; 6HR MAX TEMP:  34;

$$

IAZ064-065-067-068-078-230100-
   EAST CENTRAL IOWA

CITY           SKY/WX    TMP DP  RH WIND       PRES   REMARKS
DAVENPORT      MOCLDY    31  18  58 S7        30.23F WCI  24
6HR MIN TEMP:  31; 6HR MAX TEMP:  35;

IOWA CITY      MOCLDY    34  18  52 S7        30.22F WCI  28
6HR MIN TEMP:  32; 6HR MAX TEMP:  36;

MT. PLEASANT * PTCLDY    32  18  56 S3        30.23S
MUSCATINE *    MOCLDY    34  18  51 S7        30.23F WCI  28
QUAD CITIES    MOCLDY    32  19  58 SE3       30.23F
6HR MIN TEMP:  32; 6HR MAX TEMP:  37;

$$

IAZ062-063-075>077-085>089-095>099-230100-
   SOUTHEAST IOWA

CITY           SKY/WX    TMP DP  RH WIND       PRES   REMARKS
BURLINGTON     CLOUDY    33  19  56 S7        30.23F WCI  27
6HR MIN TEMP:  31; 6HR MAX TEMP:  36;

FAIRFIELD *    CLOUDY    36  14  41 S6        30.21F WCI  31
FORT MADISON * PTCLDY    34  19  55 S6        30.24F WCI  29
KEOKUK *       PTCLDY    36  18  48 S5        30.23F WCI  32
OSKALOOSA *    CLOUDY    34  16  47 S8        30.19F WCI  28
OTTUMWA        MOCLDY    36  14  40 S8        30.19F WCI  30
6HR MIN TEMP:  32; 6HR MAX TEMP:  39;

WASHINGTON *   CLOUDY    32  18  55 S6        30.22F WCI  26
$$

ABBREVIATIONS USED IN REMARKS
   TC - TEMPERATURES IN CELSIUS
  WCI - WIND CHILL INDEX
   HX - HEAT INDEX
  VSB - VISIBILITY
$$





USA.gov is the U.S. government's official web portal to all federal, state and local government web resources and services.